Vertical_Velocity
0 3 -1 -2 1 -2 -1 -2 -1 -2 -3 2 -3 -2 -0 -4 -3 -5 -2 -1 -8 0 -5 -3 -5 -4 -3
0 1 0 -2 0 2 -3 2 -4 1 -6 -4 -3 -6 -2 3 5 -6 -0 -5 -5 -3 -5 -6 -3 -3 -5
-3 -4 -2 2 -1 -1 -4 -0 -2 1 -1 -4 -3 -2 -6 -6 -4 2 -5 -5 -3 -3 -3 -3 -5 -6 -4
1 1 3 1 -1 1 -6 1 2 -2 -5 -2 -3 -0 -6 -4 1 -8 1 -4 -5 -3 -5 -4 -4 -3 -2
2 3 2 -0 -0 -3 -5 -2 0 -4 3 -7 2 -3 -5 2 0 -1 -1 -2 -3 -3 -3 -4 -4 -4 -5
-4 1 1 -1 1 7 -0 -7 5 0 -3 9 -7 -0 -2 0 -1 -2 1 -2 -1 -4 -4 -5 -7 -7 -4
-1 -4 0 -3 -3 3 6 -1 -3 -5 -8 7 -2 4 -1 1 0 2 1 -1 -3 -5 -7 -8 -5 -4 -1
-6 1 5 -1 1 4 -3 3 2 -6 -3 -10 1 -2 1 5 5 5 -2 -2 -3 -1 -2 -4 -3 -3 -4
1 -3 -1 -6 -0 -3 -2 -8 3 6 -3 -5 -2 -8 -1 4 8 7 -2 -1 -2 -3 -2 -2 -5 -7 -3
-1 -3 4 -7 -2 -6 -1 -10 0 -4 -0 -9 -3 -17 -18 7 8 4 0 4 -1 -1 -1 -2 -4 -10 -6
2 -2 0 -4 -10 6 -1 -8 1 -3 -7 -14 -1 1 -6 -28 7 4 -2 1 -1 0 1 1 1 -5 -14
2 -1 -4 -4 -2 2 -3 -2 -4 -7 -2 -5 -9 -7 -4 -0 -9 7 5 -0 -0 -3 -1 3 5 -1 2
-5 -5 -0 -1 -1 -1 -4 -8 -5 -2 -5 -6 -6 -2 -7 -5 -15 2 -18 5 2 -4 -1 -1 -4 -2 -4
-3 1 1 -1 -1 -6 -3 -2 -2 5 -3 -5 1 -4 -2 0 -8 -3 -1 -17 -1 -3 -5 2 3 -3 -5
1 -1 -3 -4 -4 -3 -3 -2 -8 -4 5 5 -2 -5 -1 -8 -5 -1 -3 -1 1 -3 -4 -1 8 -4 -2
-3 -6 -5 -2 -0 1 -4 -4 -4 1 -0 -3 -1 -0 6 18 -6 -5 2 -6 1 3 -1 -12 3 4 -1
-3 -3 -2 -1 -3 -3 -4 -3 1 -1 2 1 -2 -8 -4 -6 10 1 -10 1 -5 1 -2 -2 -7 2 -4
Height
3112 3111 3109 3107 3105 3103 3102 3100 3096 3092 3089 3085 3081 3076 3071 3065 3061 3057 3051 3047 3041 3037 3032 3028 3025 3021 3017
3106 3105 3102 3100 3098 3095 3093 3092 3088 3084 3080 3076 3072 3067 3061 3056 3050 3045 3039 3035 3030 3026 3021 3017 3014 3010 3006
3101 3099 3095 3092 3091 3089 3087 3085 3080 3076 3072 3067 3063 3057 3051 3047 3041 3035 3028 3023 3019 3014 3010 3007 3004 3000 2996
3096 3093 3090 3087 3085 3081 3079 3075 3072 3068 3064 3059 3055 3049 3043 3037 3031 3026 3020 3014 3009 3004 3001 2998 2995 2991 2987
3090 3087 3085 3081 3077 3074 3070 3068 3064 3059 3055 3051 3047 3039 3034 3029 3022 3017 3011 3005 3000 2996 2992 2989 2985 2981 2977
3081 3079 3077 3073 3070 3065 3060 3056 3055 3050 3044 3042 3033 3031 3025 3019 3013 3008 3002 2996 2992 2988 2984 2980 2976 2971 2966
3073 3072 3068 3064 3062 3058 3051 3046 3042 3038 3031 3028 3025 3020 3016 3011 3005 3000 2994 2989 2984 2980 2976 2972 2967 2962 2957
3067 3064 3060 3057 3053 3048 3043 3039 3032 3029 3021 3017 3013 3010 3007 3003 2998 2992 2986 2981 2976 2973 2968 2963 2957 2952 2947
3058 3057 3053 3049 3045 3040 3034 3029 3024 3020 3015 3007 3004 3000 2998 2994 2989 2984 2978 2973 2968 2963 2958 2952 2947 2942 2937
3050 3049 3044 3040 3036 3031 3023 3019 3014 3008 3006 2999 2996 2990 2988 2984 2980 2975 2969 2964 2960 2955 2949 2943 2936 2931 2926
3044 3040 3038 3031 3028 3023 3015 3010 3005 3000 2996 2989 2987 2983 2977 2971 2969 2965 2960 2955 2950 2946 2940 2935 2928 2921 2915
3037 3033 3028 3025 3022 3015 3007 3003 2999 2993 2988 2983 2978 2973 2967 2963 2959 2956 2951 2946 2941 2937 2931 2926 2921 2914 2908
3028 3025 3021 3018 3013 3006 3001 2995 2991 2987 2981 2975 2969 2965 2960 2956 2951 2947 2941 2938 2934 2929 2923 2918 2913 2907 2901
3021 3017 3013 3009 3004 2997 2993 2988 2985 2981 2974 2968 2963 2958 2954 2950 2945 2941 2936 2929 2925 2921 2915 2911 2908 2901 2896
3012 3008 3004 2999 2995 2990 2985 2980 2975 2970 2967 2963 2958 2953 2948 2944 2940 2936 2929 2924 2919 2914 2909 2904 2903 2896 2890
3004 3000 2996 2993 2989 2983 2977 2971 2968 2964 2960 2955 2951 2947 2944 2941 2936 2929 2922 2917 2913 2908 2903 2897 2894 2892 2885
2996 2993 2989 2985 2979 2973 2969 2965 2962 2958 2955 2950 2945 2940 2935 2930 2930 2926 2915 2910 2905 2901 2898 2893 2887 2885 2880